Flag for South Korea Weather past 2 weeks in Seoul, South Korea

Now
68 °F

Sunny.


Feels Like: 68 °F
Forecast: 40 / 62 °F
Wind: 9 mph from West

Location: Seoul / Kimp'O International Airport

Current Time: Apr 21, 2015 at 3:52:37 PM

Latest Report: Apr 21, 2015 at 3:00 PM


Visibility: 10 mi

Pressure: 29.98 "Hg

Humidity: 14%

Dew point: 18 °F

Location of SeoulLocation

Historic Weather in Seoul — Graph

°F

Seoul temperature yesterday

Maximum temperature yesterday: 63 °F (at 5:00 PM)
Minimum temperature yesterday: 52 °F (at 12:00 AM)
Average temperature yesterday: 55 °F

Past Weeks' High & Low Weather Summary

 TemperatureHumidityPressure
High73 °F (Apr 18, 4:00 PM)88% (Apr 19, 7:00 PM)30.33 "Hg (Apr 19, 7:00 PM)
Low34 °F (Apr 8, 5:00 AM)7% (Apr 18, 4:00 PM)29.62 "Hg (Apr 20, 5:00 AM)
Average51 °F51%30.03 "Hg
* Reported Apr 6 3:00 PM — Apr 21 3:00 PM, Seoul, Weather by CustomWeather, © 2015

Note: Actual official high and low records may vary slightly from our data, if they occured in-between our weather recording intervals... More about our weather records

Advertising

Seoul weather history for previous 24 hours

 ConditionsComfort  
Time TempWeatherWind HumidityBarometerVisibility
3:00 PM
Tue, Apr 21
68 °FSunny.9 mph14%29.98 "Hg10 mi
2:00 PM66 °FSunny.9 mph18%29.98 "Hg10 mi
1:00 PM66 °FSunny.10 mph22%30.01 "Hg10 mi
12:00 PM64 °FPassing clouds.8 mph28%30.01 "HgN/A
11:00 AM63 °FPassing clouds.6 mph32%30.01 "HgN/A
10:00 AM61 °FClear.6 mph36%30.01 "Hg5 mi
9:00 AM57 °FClear.5 mph51%30.01 "Hg5 mi
8:00 AM52 °FClear.5 mph72%29.98 "Hg4 mi
7:00 AM46 °FClear.6 mph82%29.98 "Hg4 mi
6:00 AM41 °FClear.3 mph81%29.98 "Hg4 mi
5:00 AM43 °FClear.1 mph81%29.95 "Hg10 mi
4:00 AM43 °FPassing clouds.3 mph76%29.95 "HgN/A
3:00 AM45 °FClear.7 mph76%29.92 "Hg10 mi
2:00 AM43 °FClear.6 mph76%29.92 "Hg10 mi
1:00 AM46 °FClear.5 mph71%29.92 "Hg10 mi
12:00 AM50 °FClear.3 mph71%29.92 "Hg10 mi
11:00 PM
Mon, Apr 20
52 °FClear.5 mph67%29.92 "Hg10 mi
10:00 PM54 °FPassing clouds.5 mph63%29.89 "HgN/A
9:00 PM55 °FPassing clouds.5 mph59%29.86 "HgN/A
8:00 PM54 °FPassing clouds.6 mph54%29.80 "HgN/A
7:00 PM59 °FPassing clouds.7 mph45%29.80 "HgN/A
6:00 PM61 °FScattered clouds.7 mph39%29.80 "HgN/A
5:00 PM63 °FScattered clouds.9 mph37%29.77 "HgN/A
4:00 PM61 °FScattered clouds.5 mph42%29.77 "HgN/A
3:00 PM61 °FScattered clouds.8 mph45%29.74 "HgN/A
Weather by CustomWeather, © 2015

See weather overviewHow to use our weather pages